Voltar ao catálogo

AO-91

AtivoRádio AmadorSSO
NORAD 43017·PAYLOAD·🇺🇸 United States

Lançado Nov 18, 2017 de Vandenberg Space Force Base

Loading…

Próximas Passagens (próximas 24 horas)

TLE

AtualizadoSource: Space-Track

Época: Sep 14, 2026, 09:48 UTC

1 43017U 17073E   26257.40839724  .00006482  00000-0  27555-3 0  9999
2 43017  97.4553 122.8013 0148012  20.8764 339.8426 15.13898921478887

Acompanhe AO-91 em tempo real com AllMySat

Download on the App Store